Location: B?lite?ti
(46.2833°N, 22.7333°E)
Time: 16:30:35
(UTC+00:00)

OE (NEXTSAT) - Pass Details

Date: 24 January 2021
Orbit: 426 x 436 km, 46.0° (Epoch: 01 March)

Event Time Altitude Azimuth Distance (km) Brightness Sun altitude
Rises 16:56:57 0° 275° (W) 2,384 9.6 -16.3°
Reaches altitude 10° 16:59:04 10° 275° (W) 1,517 8.3 -16.6°
Maximum altitude 17:02:30 80° 188° (S) 437 4.2 -17.2°
Enters shadow 17:03:22 47° 109° (ESE) 575 4.5 -17.4°
